Weather History for Savannah, GA

Change the Weather History Date:

Tuesday, February 19, 2013

  Actual Average Record
Temperature  
Mean Temperature 53 °F 54 °F  
Max Temperature 67 °F 65 °F 84 °F (1891)
Min Temperature 39 °F 42 °F 19 °F (1958)
Degree Days  
Heating Degree Days 12 12  
Month to date heating degree days 239 248  
Since 1 July heating degree days 1132 1422  
Cooling Degree Days 0 0  
Month to date cooling degree days 2 0  
Year to date cooling degree days 28 3  
Growing Degree Days 2 (Base 50)    
Moisture  
Dew Point 48 °F    
Average Humidity 74    
Maximum Humidity 100    
Minimum Humidity 48    
Precipitation  
Precipitation 0.04 in 0.10 in 1.75 in (1988)
Month to date precipitation 5.84 1.87  
Year to date precipitation 6.39 5.56  
Snow  
Snow 0.00 in 0.00 in - ()
Month to date snowfall 0.0  
Since 1 July snowfall 0.0 0.3  
Snow Depth 0.00 in    
Sea Level Pressure  
Sea Level Pressure 30.09 in    
Wind  
Wind Speed 7 mph (WSW)    
Max Wind Speed 20 mph    
Max Gust Speed 25 mph    
Visibility 7 miles    
Events Fog , Rain    
T = Trace of Precipitation, MM = Missing Value Source: NWS Daily Summary

Daily Weather History Graph

Daily Weather History Graph

Search for Another Location

Airport:

Trip Planner

Search our weather history database for the weather conditions in past years. The results will help you decide how hot, cold, wet, or windy it might be!

Date:

Astronomy

Feb. 19, 2013 Rise Set
Actual Time 7:02 AM EST 6:14 PM EST
Civil Twilight 6:38 AM EST 6:39 PM EST
Nautical Twilight 6:09 AM EST 7:08 PM EST
Astronomical Twilight 5:41 AM EST 7:36 PM EST
Moon 12:55 PM EST (2/19) 2:23 AM EST (2/19)
Length of Visible Light 12h 01m
Length of Day
11h 11m
Waxing Gibbous, 67% of the Moon is Illuminated
Feb 19
Waxing Gibbous
Feb 25
Full
Mar 4
Last Quarter
Mar 11
New
Mar 19
First Quarter

Hourly Weather History & Observations

Time (EST) Temp. Windchill Dew Point Humidity Pressure Visibility Wind Dir Wind Speed Gust Speed Precip Events Conditions
12:53 AM 41.0 °F - 36.0 °F 82% 30.26 in 10.0 mi Calm Calm - N/A   Clear
1:53 AM 42.1 °F 38.4 °F 36.0 °F 79% 30.22 in 10.0 mi ESE 5.8 mph - N/A   Clear
2:53 AM 43.0 °F 40.3 °F 37.0 °F 80% 30.19 in 10.0 mi North 4.6 mph - N/A   Clear
3:53 AM 43.0 °F - 39.0 °F 86% 30.16 in 10.0 mi Calm Calm - N/A   Clear
4:53 AM 39.0 °F - 36.0 °F 89% 30.15 in 10.0 mi Calm Calm - N/A   Clear
5:53 AM 42.1 °F 38.4 °F 37.9 °F 85% 30.14 in 10.0 mi SSE 5.8 mph - N/A   Scattered Clouds
6:53 AM 50.0 °F - 46.0 °F 86% 30.14 in 10.0 mi South 8.1 mph - N/A   Mostly Cloudy
7:53 AM 55.0 °F - 46.9 °F 74% 30.15 in 10.0 mi South 10.4 mph - N/A   Mostly Cloudy
8:53 AM 60.1 °F - 46.0 °F 60% 30.13 in 10.0 mi South 13.8 mph 21.9 mph N/A   Mostly Cloudy
10:53 AM 64.0 °F - 46.0 °F 52% 30.11 in 10.0 mi SSW 13.8 mph - N/A   Overcast
11:53 AM 66.0 °F - 46.0 °F 48% 30.08 in 10.0 mi SW 15.0 mph 21.9 mph 0.00 in   Overcast
12:53 PM 60.1 °F - 52.0 °F 75% 30.06 in 7.0 mi SSW 8.1 mph - 0.02 in Rain Light Rain
1:53 PM 60.1 °F - 54.0 °F 80% 30.02 in 7.0 mi South 9.2 mph - 0.02 in   Overcast
2:53 PM 62.1 °F - 54.0 °F 75% 30.00 in 7.0 mi SW 5.8 mph - N/A   Overcast
3:53 PM 60.1 °F - 55.0 °F 83% 30.01 in 10.0 mi NW 11.5 mph - N/A   Overcast
4:53 PM 57.9 °F - 54.0 °F 87% 30.03 in 10.0 mi West 6.9 mph - 0.00 in   Overcast
5:39 PM 57.2 °F - 53.6 °F 88% 30.03 in 10.0 mi West 8.1 mph - N/A   Overcast
5:53 PM 57.9 °F - 54.0 °F 87% 30.04 in 8.0 mi West 9.2 mph - N/A   Overcast
6:25 PM 57.2 °F - 55.4 °F 94% 30.04 in 9.0 mi West 6.9 mph - N/A   Overcast
7:19 PM 53.6 °F - 51.8 °F 94% 30.05 in 10.0 mi West 6.9 mph - N/A   Scattered Clouds
7:53 PM 52.0 °F - 51.1 °F 97% 30.06 in 7.0 mi West 4.6 mph - N/A Fog Patches of Fog
7:56 PM 51.8 °F - 51.8 °F 100% 30.06 in 1.5 mi West 3.5 mph - N/A Fog Patches of Fog
7:58 PM 51.8 °F - 51.8 °F 100% 30.06 in 7.0 mi West 3.5 mph - N/A Fog Patches of Fog
8:40 PM 50.0 °F - 48.2 °F 94% 30.07 in 6.0 mi SW 3.5 mph - N/A Fog Shallow Fog
8:53 PM 51.1 °F - 51.1 °F 100% 30.07 in 2.0 mi WSW 4.6 mph - N/A Fog Shallow Fog
9:46 PM 50.0 °F - 48.2 °F 94% 30.08 in 1.0 mi WSW 4.6 mph - N/A Fog Shallow Fog
9:53 PM 50.0 °F - 48.9 °F 96% 30.08 in 1.0 mi WSW 4.6 mph - N/A Fog Shallow Fog
10:19 PM 48.2 °F - 48.2 °F 100% 30.08 in 2.0 mi West 4.6 mph - N/A Fog Shallow Fog
10:38 PM 48.2 °F - 48.2 °F 100% 30.08 in 0.2 mi West 6.9 mph - N/A   Scattered Clouds
10:53 PM 50.0 °F - 48.9 °F 96% 30.08 in 0.2 mi West 6.9 mph - N/A Fog Fog
11:26 PM 50.0 °F - 48.2 °F 94% 30.09 in 0.8 mi WNW 6.9 mph - N/A   Overcast
11:41 PM 50.0 °F - 48.2 °F 94% 30.09 in 1.5 mi WNW 6.9 mph - N/A   Mostly Cloudy
11:51 PM 50.0 °F - 48.2 °F 94% 30.09 in 3.0 mi WNW 6.9 mph - N/A   Scattered Clouds
11:53 PM 48.9 °F - 48.0 °F 97% 30.09 in 3.0 mi WNW 5.8 mph - N/A   Scattered Clouds